When you browse on this site, cookies collect data to enhance your experience and personalize the content and advertising you see.
Visit our Privacy Policy to learn more. By continuing to use the site, you agree to this use of cookies and data.
  • In Austria
  • List of Countries
  • For 7 days
  • Water Temperature
  • Satellite Maps
  • Weather Map
  • News
  • Weather Widgets
  • user-avatar
    Login

    Hourly Weather Barisal

    Today, 26 June, Wednesday

    Time Temperature Precipitation Wind Pressure Humidity
    00:00 +31°C° 0 mm 3 mps 753 mmHg 81%
    01:00 +32°C° 0 mm 4 mps 752 mmHg 81%
    02:00 +32°C° 0 mm 4 mps 752 mmHg 82%
    03:00 +32°C° 0 mm 5 mps 751 mmHg 82%
    04:00 +32°C° 0 mm 5 mps 752 mmHg 81%
    05:00 +32°C° 0 mm 5 mps 752 mmHg 79%
    06:00 +32°C° 0 mm 5 mps 752 mmHg 78%
    07:00 +33°C° 0 mm 5 mps 752 mmHg 73%
    08:00 +34°C° 0 mm 5 mps 752 mmHg 68%
    09:00 +35°C° 0 mm 6 mps 752 mmHg 63%
    10:00 +38°C° 0 mm 6 mps 752 mmHg 58%
    11:00 +39°C° 0 mm 6 mps 752 mmHg 54%
    12:00 +40°C° 0 mm 6 mps 752 mmHg 50%
    13:00 +40°C° 0 mm 6 mps 751 mmHg 51%
    14:00 +40°C° 0 mm 6 mps 750 mmHg 51%
    15:00 +39°C° 0 mm 7 mps 750 mmHg 52%
    16:00 +38°C° 0.1 mm 7 mps 749 mmHg 56%
    17:00 +36°C° 0.1 mm 7 mps 749 mmHg 61%
    18:00 +35°C° 0.1 mm 7 mps 749 mmHg 65%
    19:00 +34°C° 0 mm 7 mps 749 mmHg 68%
    20:00 +34°C° 0 mm 6 mps 750 mmHg 72%
    21:00 +33°C° 0 mm 6 mps 750 mmHg 75%
    22:00 +33°C° 0 mm 6 mps 750 mmHg 76%
    23:00 +33°C° 0 mm 6 mps 750 mmHg 77%

    Tomorrow, 27 June, Thursday

    Time Temperature Precipitation Wind Pressure Humidity
    00:00 +33°C° 0 mm 6 mps 750 mmHg 79%
    01:00 +32°C° 0 mm 6 mps 750 mmHg 79%
    02:00 +32°C° 0 mm 6 mps 749 mmHg 80%
    03:00 +32°C° 0 mm 6 mps 749 mmHg 80%
    04:00 +32°C° 0 mm 6 mps 749 mmHg 79%
    05:00 +32°C° 0 mm 6 mps 749 mmHg 78%
    06:00 +32°C° 0 mm 5 mps 749 mmHg 77%
    07:00 +34°C° 0 mm 6 mps 749 mmHg 73%
    08:00 +35°C° 0 mm 6 mps 749 mmHg 68%
    09:00 +36°C° 0 mm 6 mps 750 mmHg 63%
    10:00 +38°C° 0 mm 6 mps 749 mmHg 60%
    11:00 +39°C° 0 mm 7 mps 749 mmHg 56%
    12:00 +40°C° 0 mm 7 mps 748 mmHg 52%
    13:00 +40°C° 0 mm 7 mps 748 mmHg 53%
    14:00 +39°C° 0 mm 7 mps 747 mmHg 53%
    15:00 +39°C° 0 mm 7 mps 747 mmHg 54%
    16:00 +38°C° 0 mm 7 mps 747 mmHg 58%
    17:00 +36°C° 0 mm 7 mps 746 mmHg 63%
    18:00 +35°C° 0 mm 7 mps 746 mmHg 68%
    19:00 +34°C° 0 mm 7 mps 747 mmHg 71%
    20:00 +34°C° 0 mm 7 mps 747 mmHg 75%
    21:00 +33°C° 0 mm 7 mps 748 mmHg 78%
    22:00 +33°C° 0 mm 6 mps 748 mmHg 78%
    23:00 +33°C° 0 mm 6 mps 748 mmHg 78%

    Day after tomorrow, 28 June, Friday

    Time Temperature Precipitation Wind Pressure Humidity
    00:00 +33°C° 0 mm 6 mps 748 mmHg 79%
    01:00 +33°C° 0 mm 5 mps 748 mmHg 78%
    02:00 +33°C° 0 mm 5 mps 748 mmHg 77%
    03:00 +33°C° 0 mm 5 mps 747 mmHg 77%
    04:00 +33°C° 0 mm 5 mps 747 mmHg 78%
    05:00 +33°C° 0 mm 5 mps 747 mmHg 79%
    06:00 +33°C° 0 mm 5 mps 747 mmHg 79%
    07:00 +34°C° 1 mm 5 mps 748 mmHg 74%
    08:00 +35°C° 1 mm 5 mps 748 mmHg 68%
    09:00 +36°C° 1 mm 5 mps 748 mmHg 62%
    10:00 +36°C° 3.2 mm 5 mps 748 mmHg 64%
    11:00 +35°C° 3.2 mm 4 mps 748 mmHg 66%
    12:00 +35°C° 3.2 mm 4 mps 748 mmHg 67%
    13:00 +35°C° 2.6 mm 4 mps 747 mmHg 66%
    14:00 +36°C° 2.6 mm 3 mps 747 mmHg 65%
    15:00 +36°C° 2.6 mm 3 mps 746 mmHg 64%
    16:00 +35°C° 1.5 mm 3 mps 746 mmHg 68%
    17:00 +34°C° 1.5 mm 3 mps 746 mmHg 72%
    18:00 +33°C° 1.5 mm 3 mps 746 mmHg 76%
    19:00 +33°C° 0 mm 3 mps 746 mmHg 76%
    20:00 +33°C° 0 mm 3 mps 747 mmHg 77%
    21:00 +33°C° 0 mm 4 mps 747 mmHg 77%
    22:00 +33°C° 0 mm 4 mps 747 mmHg 79%
    23:00 +33°C° 0 mm 4 mps 747 mmHg 81%

    29 June, Saturday

    Time Temperature Precipitation Wind Pressure Humidity
    00:00 +33°C° 0 mm 4 mps 747 mmHg 83%
    01:00 +32°C° 0 mm 4 mps 747 mmHg 83%
    02:00 +32°C° 0 mm 4 mps 746 mmHg 83%
    03:00 +32°C° 0 mm 4 mps 746 mmHg 84%
    04:00 +31°C° 0 mm 3 mps 746 mmHg 83%
    05:00 +31°C° 0 mm 3 mps 746 mmHg 82%
    06:00 +31°C° 0 mm 2 mps 746 mmHg 80%
    07:00 +34°C° 0.1 mm 3 mps 747 mmHg 73%
    08:00 +36°C° 0.1 mm 3 mps 747 mmHg 65%
    09:00 +37°C° 0.1 mm 4 mps 747 mmHg 57%
    10:00 +38°C° 0 mm 4 mps 747 mmHg 53%
    11:00 +40°C° 0 mm 4 mps 747 mmHg 49%
    12:00 +41°C° 0 mm 4 mps 746 mmHg 44%
    13:00 +41°C° 0 mm 5 mps 746 mmHg 46%
    14:00 +40°C° 0 mm 5 mps 745 mmHg 48%
    15:00 +40°C° 0 mm 6 mps 745 mmHg 50%
    16:00 +38°C° 0 mm 6 mps 745 mmHg 56%
    17:00 +36°C° 0 mm 6 mps 745 mmHg 61%
    18:00 +35°C° 0 mm 6 mps 745 mmHg 66%
    19:00 +34°C° 0 mm 6 mps 745 mmHg 69%
    20:00 +34°C° 0 mm 6 mps 746 mmHg 71%
    21:00 +33°C° 0 mm 6 mps 747 mmHg 74%
    22:00 +33°C° 0 mm 5 mps 747 mmHg 75%
    23:00 +33°C° 0 mm 5 mps 747 mmHg 77%

    30 June, Sunday

    Time Temperature Precipitation Wind Pressure Humidity
    00:00 +33°C° 0 mm 5 mps 747 mmHg 78%
    01:00 +33°C° 0 mm 5 mps 747 mmHg 78%
    02:00 +33°C° 0 mm 4 mps 746 mmHg 79%
    03:00 +31°C° 0 mm 3 mps 746 mmHg 79%
    04:00 +32°C° 0 mm 2 mps 746 mmHg 80%
    05:00 +32°C° 0 mm 2 mps 746 mmHg 80%
    06:00 +32°C° 0 mm 1 mps 746 mmHg 81%
    07:00 +34°C° 0 mm 2 mps 746 mmHg 75%
    08:00 +35°C° 0 mm 2 mps 747 mmHg 69%
    09:00 +36°C° 0 mm 2 mps 747 mmHg 62%
    10:00 +37°C° 0.2 mm 3 mps 747 mmHg 59%
    11:00 +38°C° 0.2 mm 3 mps 747 mmHg 56%
    12:00 +40°C° 0.2 mm 4 mps 746 mmHg 53%
    13:00 +40°C° 0.3 mm 4 mps 746 mmHg 54%
    14:00 +39°C° 0.3 mm 5 mps 745 mmHg 54%
    15:00 +39°C° 0.3 mm 6 mps 745 mmHg 55%
    16:00 +38°C° 0.2 mm 6 mps 745 mmHg 58%
    17:00 +36°C° 0.2 mm 6 mps 745 mmHg 61%
    18:00 +35°C° 0.2 mm 6 mps 745 mmHg 64%
    19:00 +34°C° 0 mm 5 mps 746 mmHg 67%
    20:00 +33°C° 0 mm 5 mps 747 mmHg 71%
    21:00 +33°C° 0 mm 4 mps 747 mmHg 74%
    22:00 +32°C° 0 mm 4 mps 747 mmHg 75%
    23:00 +32°C° 0 mm 4 mps 747 mmHg 76%

    1 July, Monday

    Time Temperature Precipitation Wind Pressure Humidity
    00:00 +31°C° 0 mm 3 mps 747 mmHg 77%
    01:00 +31°C° 0 mm 3 mps 747 mmHg 79%
    02:00 +31°C° 0 mm 3 mps 746 mmHg 80%
    03:00 +30°C° 0 mm 2 mps 746 mmHg 81%
    04:00 +30°C° 0 mm 2 mps 746 mmHg 81%
    05:00 +30°C° 0 mm 2 mps 746 mmHg 82%
    06:00 +30°C° 0 mm 1 mps 747 mmHg 82%
    07:00 +32°C° 0 mm 2 mps 747 mmHg 75%
    08:00 +34°C° 0 mm 2 mps 747 mmHg 69%
    09:00 +35°C° 0 mm 3 mps 747 mmHg 62%
    10:00 +36°C° 0.3 mm 3 mps 747 mmHg 60%
    11:00 +36°C° 0.3 mm 3 mps 747 mmHg 58%
    12:00 +37°C° 0.3 mm 3 mps 747 mmHg 56%
    13:00 +37°C° 0.7 mm 3 mps 746 mmHg 55%
    14:00 +37°C° 0.7 mm 4 mps 746 mmHg 55%
    15:00 +37°C° 0.7 mm 4 mps 745 mmHg 55%
    16:00 +36°C° 0.6 mm 4 mps 745 mmHg 58%
    17:00 +36°C° 0.6 mm 4 mps 745 mmHg 62%
    18:00 +35°C° 0.6 mm 4 mps 745 mmHg 66%
    19:00 +34°C° 0 mm 4 mps 746 mmHg 69%
    20:00 +33°C° 0 mm 4 mps 746 mmHg 73%
    21:00 +31°C° 0 mm 3 mps 747 mmHg 76%
    22:00 +31°C° 0 mm 3 mps 747 mmHg 77%
    23:00 +31°C° 0 mm 3 mps 747 mmHg 78%
    Show more